When you browse on this site, cookies collect data to enhance your experience and personalize the content and advertising you see.
Visit our Privacy Policy to learn more. By continuing to use the site, you agree to this use of cookies and data.

Hourly Weather Muttenz

Today, 15 July, Wednesday

Time Temperature Precipitation Wind Pressure Humidity
00:00 +16°C° 0.6 mm 1 mps 722 mmHg 91%
01:00 +16°C° 0 mm 1 mps 722 mmHg 91%
02:00 +15°C° 0.8 mm 1 mps 722 mmHg 92%
03:00 +15°C° 0.8 mm 1 mps 722 mmHg 93%
04:00 +15°C° 0.8 mm 1 mps 721 mmHg 94%
05:00 +15°C° 0.4 mm 1 mps 722 mmHg 93%
06:00 +16°C° 0.4 mm 1 mps 722 mmHg 93%
07:00 +16°C° 0.4 mm 1 mps 722 mmHg 92%
08:00 +16°C° 0.8 mm 1 mps 722 mmHg 93%
09:00 +16°C° 0.8 mm 2 mps 722 mmHg 93%
10:00 +16°C° 0.8 mm 2 mps 722 mmHg 93%
11:00 +17°C° 0.8 mm 2 mps 722 mmHg 91%
12:00 +17°C° 0.8 mm 2 mps 723 mmHg 89%
13:00 +18°C° 0.8 mm 1 mps 723 mmHg 87%
14:00 +18°C° 0.1 mm 2 mps 723 mmHg 80%
15:00 +19°C° 0.1 mm 2 mps 723 mmHg 72%
16:00 +20°C° 0.1 mm 2 mps 723 mmHg 65%
17:00 +19°C° 0.2 mm 2 mps 724 mmHg 72%
18:00 +18°C° 0.2 mm 2 mps 724 mmHg 78%
19:00 +19°C° 0.2 mm 1 mps 724 mmHg 85%
20:00 +18°C° 0.1 mm 1 mps 724 mmHg 86%
21:00 +16°C° 0.1 mm 1 mps 724 mmHg 87%
22:00 +15°C° 0.1 mm 1 mps 724 mmHg 88%
23:00 +15°C° 0.1 mm 1 mps 724 mmHg 88%

Tomorrow, 16 July, Thursday

Time Temperature Precipitation Wind Pressure Humidity
00:00 +14°C° 0.1 mm 0 mps 724 mmHg 89%
01:00 +13°C° 0.1 mm 0 mps 724 mmHg 89%
02:00 +13°C° 0.2 mm 0 mps 724 mmHg 91%
03:00 +14°C° 0.2 mm 1 mps 724 mmHg 92%
04:00 +14°C° 0.2 mm 1 mps 724 mmHg 93%
05:00 +14°C° 0.1 mm 1 mps 724 mmHg 93%
06:00 +14°C° 0.1 mm 1 mps 725 mmHg 93%
07:00 +15°C° 0.1 mm 1 mps 725 mmHg 93%
08:00 +16°C° 0.2 mm 1 mps 725 mmHg 90%
09:00 +17°C° 0.2 mm 2 mps 725 mmHg 86%
10:00 +18°C° 0.2 mm 2 mps 726 mmHg 82%
11:00 +18°C° 0.4 mm 2 mps 726 mmHg 82%
12:00 +18°C° 0.4 mm 2 mps 726 mmHg 81%
13:00 +18°C° 0.4 mm 2 mps 726 mmHg 80%
14:00 +19°C° 0.3 mm 2 mps 726 mmHg 78%
15:00 +19°C° 0.3 mm 2 mps 726 mmHg 75%
16:00 +20°C° 0.3 mm 2 mps 726 mmHg 73%
17:00 +19°C° 0.2 mm 2 mps 726 mmHg 77%
18:00 +18°C° 0.2 mm 2 mps 726 mmHg 82%
19:00 +17°C° 0.2 mm 2 mps 726 mmHg 86%
20:00 +16°C° 0 mm 2 mps 726 mmHg 87%
21:00 +16°C° 0 mm 1 mps 726 mmHg 88%
22:00 +15°C° 0 mm 1 mps 726 mmHg 89%
23:00 +15°C° 0 mm 1 mps 726 mmHg 89%

Day after tomorrow, 17 July, Friday

Time Temperature Precipitation Wind Pressure Humidity
00:00 +15°C° 0 mm 1 mps 726 mmHg 90%
01:00 +15°C° 0 mm 1 mps 725 mmHg 90%
02:00 +14°C° 0.2 mm 1 mps 725 mmHg 92%
03:00 +14°C° 0.2 mm 1 mps 725 mmHg 93%
04:00 +13°C° 0.2 mm 0 mps 725 mmHg 95%
05:00 +13°C° 0.1 mm 0 mps 725 mmHg 95%
06:00 +14°C° 0.1 mm 0 mps 725 mmHg 95%
07:00 +14°C° 0.1 mm 0 mps 725 mmHg 95%
08:00 +14°C° 0.1 mm 0 mps 725 mmHg 93%
09:00 +15°C° 0.1 mm 0 mps 725 mmHg 90%
10:00 +16°C° 0.1 mm 0 mps 725 mmHg 88%
11:00 +19°C° 0.2 mm 1 mps 725 mmHg 82%
12:00 +21°C° 0.2 mm 1 mps 725 mmHg 76%
13:00 +22°C° 0.2 mm 1 mps 725 mmHg 69%
14:00 +21°C° 0.2 mm 2 mps 725 mmHg 68%
15:00 +23°C° 0.2 mm 2 mps 725 mmHg 67%
16:00 +23°C° 0.2 mm 2 mps 725 mmHg 66%
17:00 +21°C° 0.1 mm 2 mps 725 mmHg 71%
18:00 +21°C° 0.1 mm 1 mps 725 mmHg 76%
19:00 +20°C° 0.1 mm 1 mps 725 mmHg 81%
20:00 +19°C° 0 mm 1 mps 725 mmHg 84%
21:00 +18°C° 0 mm 1 mps 725 mmHg 88%
22:00 +15°C° 0 mm 1 mps 725 mmHg 91%
23:00 +14°C° 0 mm 0 mps 725 mmHg 91%

18 July, Saturday

Time Temperature Precipitation Wind Pressure Humidity
00:00 +13°C° 0 mm 0 mps 725 mmHg 91%
01:00 +13°C° 0 mm 0 mps 725 mmHg 91%
02:00 +12°C° 0 mm 0 mps 725 mmHg 92%
03:00 +12°C° 0 mm 0 mps 725 mmHg 92%
04:00 +12°C° 0 mm 0 mps 725 mmHg 93%
05:00 +13°C° 0 mm 0 mps 725 mmHg 91%
06:00 +14°C° 0 mm 0 mps 725 mmHg 89%
07:00 +15°C° 0 mm 0 mps 725 mmHg 88%
08:00 +19°C° 0 mm 1 mps 725 mmHg 78%
09:00 +21°C° 0 mm 1 mps 725 mmHg 69%
10:00 +23°C° 0 mm 1 mps 725 mmHg 60%
11:00 +24°C° 0 mm 2 mps 725 mmHg 56%
12:00 +25°C° 0 mm 2 mps 725 mmHg 53%
13:00 +26°C° 0 mm 2 mps 725 mmHg 49%
14:00 +26°C° 0 mm 2 mps 725 mmHg 50%
15:00 +26°C° 0 mm 2 mps 724 mmHg 51%
16:00 +26°C° 0 mm 2 mps 724 mmHg 52%
17:00 +25°C° 0 mm 2 mps 724 mmHg 59%
18:00 +24°C° 0 mm 1 mps 724 mmHg 66%
19:00 +23°C° 0 mm 1 mps 724 mmHg 74%
20:00 +21°C° 0.1 mm 1 mps 724 mmHg 78%
21:00 +20°C° 0.1 mm 1 mps 724 mmHg 81%
22:00 +18°C° 0.1 mm 1 mps 725 mmHg 85%
23:00 +15°C° 0 mm 0 mps 724 mmHg 86%

19 July, Sunday

Time Temperature Precipitation Wind Pressure Humidity
00:00 +15°C° 0 mm 0 mps 724 mmHg 88%
01:00 +14°C° 0 mm 0 mps 724 mmHg 89%
02:00 +14°C° 0 mm 0 mps 724 mmHg 89%
03:00 +14°C° 0 mm 0 mps 724 mmHg 90%
04:00 +13°C° 0 mm 0 mps 723 mmHg 91%
05:00 +14°C° 0 mm 0 mps 724 mmHg 89%
06:00 +15°C° 0 mm 0 mps 724 mmHg 87%
07:00 +16°C° 0 mm 0 mps 724 mmHg 86%
08:00 +19°C° 0 mm 0 mps 724 mmHg 77%
09:00 +21°C° 0 mm 0 mps 724 mmHg 68%
10:00 +25°C° 0 mm 1 mps 724 mmHg 59%
11:00 +26°C° 0 mm 1 mps 724 mmHg 55%
12:00 +27°C° 0 mm 1 mps 724 mmHg 52%
13:00 +28°C° 0 mm 1 mps 724 mmHg 49%
14:00 +28°C° 0 mm 1 mps 724 mmHg 48%
15:00 +28°C° 0 mm 2 mps 724 mmHg 48%
16:00 +28°C° 0 mm 2 mps 724 mmHg 48%
17:00 +26°C° 0 mm 1 mps 724 mmHg 55%
18:00 +25°C° 0 mm 1 mps 724 mmHg 62%
19:00 +24°C° 0 mm 1 mps 724 mmHg 69%
20:00 +22°C° 0 mm 1 mps 724 mmHg 74%
21:00 +21°C° 0 mm 1 mps 724 mmHg 78%
22:00 +19°C° 0 mm 1 mps 724 mmHg 83%
23:00 +18°C° 0 mm 1 mps 724 mmHg 85%

20 July, Monday

Time Temperature Precipitation Wind Pressure Humidity
00:00 +16°C° 0 mm 0 mps 724 mmHg 87%
01:00 +15°C° 0 mm 0 mps 724 mmHg 89%
02:00 +15°C° 0 mm 0 mps 724 mmHg 90%
03:00 +15°C° 0 mm 0 mps 724 mmHg 91%
04:00 +14°C° 0 mm 0 mps 724 mmHg 92%
05:00 +16°C° 0 mm 0 mps 724 mmHg 89%
06:00 +17°C° 0 mm 0 mps 725 mmHg 87%
07:00 +18°C° 0 mm 0 mps 725 mmHg 85%
08:00 +19°C° 0.1 mm 0 mps 725 mmHg 76%
09:00 +23°C° 0.1 mm 1 mps 725 mmHg 68%
10:00 +25°C° 0.1 mm 1 mps 725 mmHg 60%
11:00 +26°C° 0 mm 2 mps 725 mmHg 54%
12:00 +27°C° 0 mm 2 mps 725 mmHg 49%
13:00 +27°C° 0 mm 2 mps 725 mmHg 43%
14:00 +27°C° 0.1 mm 3 mps 725 mmHg 46%
15:00 +26°C° 0.1 mm 3 mps 725 mmHg 49%
16:00 +26°C° 0.1 mm 4 mps 726 mmHg 52%
17:00 +25°C° 0 mm 3 mps 726 mmHg 58%
18:00 +24°C° 0 mm 2 mps 726 mmHg 63%
19:00 +23°C° 0 mm 2 mps 726 mmHg 69%
20:00 +21°C° 0 mm 1 mps 726 mmHg 72%
21:00 +20°C° 0 mm 1 mps 726 mmHg 75%
22:00 +18°C° 0 mm 1 mps 726 mmHg 79%
23:00 +16°C° 0 mm 1 mps 726 mmHg 81%
Show more